Wind_Speed
23 27 30 32 31 31 31 30 30 30 29 29 28 27 26 24 23 22 20 19 20 21 21 21 21 20 20 20 19 17 14 12
21 25 28 32 34 34 33 33 32 32 31 30 30 29 28 27 25 23 20 20 22 22 23 23 23 23 23 23 22 18 15 12
24 26 29 32 34 36 35 34 33 33 33 32 32 32 31 29 29 27 23 22 23 24 24 24 24 24 25 25 22 20 16 14
27 28 29 30 34 36 37 36 36 36 36 35 36 36 35 34 33 29 24 23 25 26 26 26 26 26 27 25 24 21 18 16
28 30 30 31 34 37 38 39 39 39 39 39 40 39 37 35 34 31 29 27 29 30 29 30 30 31 31 31 27 23 20 18
29 30 31 31 33 36 38 39 40 42 43 43 42 42 40 40 40 38 36 34 34 33 33 33 33 33 33 31 29 27 23 19
33 32 33 34 34 36 38 39 41 42 42 44 45 45 44 43 43 43 42 40 38 38 38 37 36 35 35 34 33 29 26 22
34 36 35 34 37 37 39 38 40 40 40 41 45 45 46 45 45 45 44 41 39 38 38 38 37 36 38 37 36 32 29 25
35 36 38 38 39 39 40 40 39 38 39 39 41 43 44 44 45 47 48 45 41 37 37 38 39 39 40 40 38 34 30 28
26 29 32 36 39 41 42 43 41 38 39 38 40 41 41 40 42 48 49 45 27 40 38 41 41 39 41 41 39 35 32 30
22 25 24 27 30 35 40 41 42 39 37 36 36 37 38 40 41 44 49 42 35 39 37 37 37 36 36 38 39 36 34 32
13 16 16 20 24 29 35 39 40 39 39 35 35 34 36 38 41 35 37 39 37 36 40 37 34 41 41 39 37 37 34 32
11 12 11 12 19 23 30 35 37 37 35 34 35 32 32 33 34 33 31 36 37 33 38 35 46 44 39 39 36 37 36 37
23 19 16 11 13 17 20 26 30 33 35 33 31 31 30 30 31 30 30 34 35 38 40 43 47 48 44 45 35 36 40 40
20 19 19 20 21 17 9 4 8 16 16 23 25 25 27 31 25 27 25 29 33 35 43 48 49 54 52 41 26 18 38 44
11 12 13 14 13 12 15 15 12 15 9 5 8 12 21 22 21 18 24 27 33 35 39 48 52 53 50 48 45 41 32 25
16 15 14 14 14 11 9 11 11 9 10 11 13 10 9 13 19 23 22 28 30 34 39 45 54 48 53 54 46 40 37 35
28 28 22 19 16 14 14 13 12 14 14 16 19 16 18 14 12 18 23 21 29 33 42 49 52 36 40 57 56 52 50 43
27 27 27 29 25 20 16 19 17 17 18 19 19 18 24 21 16 15 15 21 23 31 36 36 47 46 44 58 62 61 58 49
29 28 28 26 25 24 23 21 21 22 24 26 24 25 27 24 21 23 18 16 19 30 37 36 48 49 47 56 65 60 60 57
Wind_Direction
207 210 214 218 220 221 221 221 220 219 219 217 214 214 210 211 211 212 214 209 209 206 204 203 202 202 199 197 195 187 193 192
214 215 217 219 221 223 224 224 224 224 224 222 220 219 217 215 215 217 219 216 214 211 208 207 206 200 198 197 196 189 194 197
223 222 220 220 221 222 223 225 227 227 227 225 223 219 216 218 220 220 215 214 214 211 211 209 207 200 197 195 195 197 196 195
232 229 228 227 225 224 223 223 225 226 227 226 223 221 220 218 221 220 217 215 212 211 210 211 208 200 196 196 200 200 196 191
246 239 233 231 229 227 225 224 223 226 228 228 226 224 220 220 222 222 222 213 210 208 205 210 209 206 199 197 200 200 199 189
253 249 244 242 238 235 230 227 226 226 227 228 226 225 223 222 226 229 228 218 210 211 210 210 212 210 207 203 202 200 196 188
259 254 248 245 241 240 236 231 230 229 229 229 229 228 227 228 227 230 231 224 213 212 212 213 214 211 208 206 201 199 197 191
263 264 259 251 248 246 242 239 235 232 232 232 234 232 228 228 229 232 232 229 220 215 217 216 216 211 208 204 202 199 196 190
261 262 263 260 254 249 247 246 240 237 232 237 239 237 232 239 236 239 238 235 226 220 218 220 218 212 207 203 200 196 193 187
262 258 256 256 256 253 249 247 242 241 238 241 241 237 237 244 248 242 243 238 239 240 216 218 218 214 206 204 199 195 191 187
273 263 260 261 258 252 249 247 246 247 246 245 244 243 241 242 247 251 248 241 243 226 220 219 212 210 208 202 198 192 191 185
302 277 263 262 261 254 251 245 247 248 251 249 250 247 244 243 248 255 262 244 237 234 226 219 218 214 206 209 198 192 189 186
5 353 314 276 266 263 255 251 251 246 250 257 255 251 243 245 248 251 254 253 247 228 215 227 212 209 209 194 192 193 191 190
46 45 19 313 277 257 251 245 246 240 247 248 248 254 250 245 243 246 252 245 244 235 230 228 213 207 197 204 185 189 190 193
35 37 39 32 31 1 306 242 221 223 237 242 244 247 248 243 249 251 252 250 248 251 245 221 202 205 210 192 171 193 182 183
23 16 8 1 8 0 355 0 1 357 338 334 291 254 243 243 234 246 249 250 251 249 236 223 219 216 200 202 205 193 173 180
347 340 335 336 340 339 331 325 321 302 310 321 321 308 313 279 245 243 236 245 243 245 242 225 217 213 211 202 208 206 198 184
341 339 328 319 313 313 306 296 296 294 293 287 286 296 279 286 276 254 250 242 246 249 254 233 223 218 224 218 209 206 195 190
327 325 324 319 307 301 292 288 284 286 285 276 260 264 272 285 268 261 264 246 238 250 233 243 225 217 225 211 209 208 218 206
317 309 303 301 299 299 295 292 286 279 283 283 279 272 264 252 258 262 263 268 266 243 232 243 233 226 230 219 215 216 215 212
Height
1500 1501 1503 1505 1507 1510 1512 1514 1516 1518 1520 1523 1526 1529 1530 1532 1534 1535 1536 1539 1540 1541 1543 1546 1547 1550 1554 1558 1559 1559 1563 1566
1499 1499 1500 1502 1503 1505 1508 1510 1513 1516 1519 1521 1524 1527 1530 1530 1532 1534 1536 1538 1538 1540 1542 1543 1545 1546 1550 1555 1558 1559 1559 1562
1495 1496 1497 1497 1499 1501 1504 1507 1510 1513 1516 1519 1522 1524 1526 1528 1530 1532 1534 1535 1537 1538 1541 1542 1544 1546 1549 1552 1556 1558 1559 1560
1491 1493 1494 1496 1498 1499 1501 1504 1507 1510 1512 1515 1517 1518 1520 1522 1524 1528 1532 1535 1535 1536 1537 1540 1542 1544 1547 1552 1554 1556 1557 1559
1488 1488 1489 1491 1492 1494 1496 1498 1501 1503 1507 1510 1512 1514 1516 1520 1522 1524 1527 1530 1531 1533 1532 1536 1538 1540 1543 1546 1549 1554 1556 1557
1483 1484 1485 1486 1488 1489 1490 1492 1495 1497 1498 1503 1507 1510 1512 1514 1516 1519 1521 1523 1525 1530 1530 1531 1534 1536 1540 1542 1546 1548 1553 1556
1480 1479 1480 1481 1481 1482 1483 1485 1488 1490 1493 1497 1501 1503 1506 1508 1511 1511 1514 1516 1518 1521 1525 1527 1528 1532 1535 1538 1540 1544 1547 1551
1474 1475 1476 1478 1478 1478 1480 1481 1483 1485 1488 1492 1495 1497 1500 1502 1505 1506 1509 1513 1515 1518 1521 1522 1524 1527 1530 1534 1538 1539 1544 1547
1467 1467 1469 1470 1471 1472 1474 1475 1477 1480 1483 1485 1489 1494 1493 1496 1499 1501 1503 1506 1509 1514 1519 1524 1522 1522 1527 1530 1535 1536 1541 1545
1460 1459 1459 1461 1463 1465 1466 1467 1469 1472 1473 1479 1481 1483 1487 1491 1494 1495 1498 1494 1490 1510 1508 1518 1521 1522 1524 1529 1531 1532 1537 1541
1453 1452 1452 1453 1454 1456 1458 1460 1462 1466 1467 1471 1475 1478 1481 1482 1485 1488 1490 1491 1499 1502 1507 1516 1517 1520 1526 1532 1533 1528 1535 1536
1451 1450 1450 1450 1449 1450 1452 1454 1456 1458 1461 1466 1468 1471 1474 1477 1480 1482 1486 1491 1492 1498 1502 1509 1511 1518 1520 1526 1529 1527 1533 1535
1450 1449 1450 1450 1449 1449 1448 1448 1451 1453 1457 1461 1464 1467 1468 1470 1473 1476 1477 1483 1487 1489 1495 1499 1504 1507 1520 1521 1522 1529 1526 1532
1455 1452 1452 1451 1450 1447 1446 1445 1446 1446 1450 1454 1458 1461 1462 1465 1466 1467 1471 1474 1481 1485 1487 1488 1499 1502 1505 1512 1520 1523 1523 1524
1458 1456 1454 1454 1452 1451 1448 1443 1441 1442 1444 1447 1448 1452 1455 1458 1458 1460 1462 1466 1471 1476 1477 1477 1487 1490 1491 1496 1505 1513 1513 1517
1460 1459 1455 1454 1451 1449 1448 1445 1443 1443 1444 1442 1444 1445 1449 1450 1450 1453 1456 1458 1461 1464 1470 1471 1478 1479 1486 1488 1494 1495 1499 1510
1461 1457 1456 1453 1450 1448 1446 1444 1443 1443 1442 1442 1440 1446 1445 1445 1445 1447 1449 1451 1453 1456 1461 1465 1468 1471 1481 1481 1486 1492 1500 1499
1458 1456 1453 1451 1447 1444 1444 1442 1440 1439 1437 1437 1438 1437 1445 1440 1441 1443 1442 1441 1446 1450 1452 1455 1457 1466 1469 1473 1479 1487 1489 1492
1454 1452 1449 1445 1443 1443 1440 1439 1435 1433 1434 1433 1432 1426 1432 1435 1436 1438 1438 1435 1437 1440 1442 1447 1450 1455 1460 1460 1467 1476 1483 1485
1448 1444 1440 1438 1435 1435 1437 1435 1431 1426 1425 1428 1425 1422 1424 1429 1427 1435 1435 1433 1435 1435 1434 1439 1440 1449 1453 1456 1461 1464 1471 1472